Location: Doschendorf
(50.0069°N, 11.0602°E)
Time: 00:24:01
(UTC+00:00)

IRS-1A Rocket - Pass Details

Date: 17 November 2019
Orbit: 852 x 931 km, 99.2° (Epoch: 10 December)

Event Time Altitude Azimuth Distance (km) Brightness Sun altitude
Exits shadow 17:56:23 48° 116° (ESE) 1,141 4.5 -23.3°
Maximum altitude 17:57:39 60° 68° (ENE) 1,015 4.2 -23.5°
Drops below altitude 10° 18:03:19 10° 350° (N) 2,595 6.8 -24.4°
Sets 18:05:47 0° 347° (NNW) 3,552 7.6 -24.8°
